Date String (YYYY-MM-DD hh:mm:ss) UTC,Instrument flags,Ambient pressure (hPa),Sample flow (lpm),Bypass flow (lpm),Sample temperature (°C),Ambient temperature (°C),ASC tube jacket temperature (°C),LED temperature (°C),Box temperature (°C),Sample RH (%),Span deviation,Mass concentration (μg/m³),Mass concentration (μg/m³),Mass concentration (μg/m³)
DateTimeUTC,F1_M11,P_M11,Q1_M11,Q2_M11,T1_M11,T2_M11,T3_M11,T4_M11,T5_M11,U1_M11,ZSPAN_M11,X0_M11,X2_M11,X1_M11
2022-04-23 17:00:00,,0812.0,5.01,0.00,23.0,22.1,00.0,32.0,24.8,10.2,0000.0,0004.02,0000.67,0000.15
2022-04-23 17:01:00,,0812.0,5.00,0.00,23.0,22.1,00.0,32.0,24.8,09.9,0000.0,0004.33,0000.71,0000.15
2022-04-23 17:02:00,,0812.0,5.00,0.00,23.0,22.1,00.0,32.0,24.8,09.8,0000.0,0005.29,0000.70,0000.16
2022-04-23 17:03:00,,0811.9,5.00,0.00,23.0,22.1,00.0,32.0,24.8,10.2,0000.0,0005.30,0000.73,0000.16
2022-04-23 17:04:00,,0811.6,5.00,0.00,23.0,22.1,00.0,32.0,24.8,10.0,0000.0,0006.13,0000.75,0000.16
2022-04-23 17:05:00,,0812.0,4.98,0.00,23.0,22.1,00.0,32.0,24.8,09.8,0000.0,0006.44,0000.75,0000.17
2022-04-23 17:06:00,,0812.0,4.99,0.00,23.0,22.1,00.0,32.0,24.8,09.9,0000.0,0006.25,0000.73,0000.17
2022-04-23 17:07:00,,0811.9,5.01,0.00,23.0,22.0,00.0,32.0,24.8,10.0,0000.0,0006.28,0000.75,0000.18
2022-04-23 17:08:00,,0812.1,5.02,0.00,23.0,22.0,00.0,32.0,24.8,10.1,0000.0,0005.79,0000.77,0000.18
2022-04-23 17:09:00,,0812.3,4.99,0.00,23.0,22.0,00.0,32.0,24.8,10.2,0000.0,0006.01,0000.74,0000.17
2022-04-23 17:10:00,,0812.2,4.98,0.00,22.9,22.0,00.0,32.0,24.8,10.1,0000.0,0006.23,0000.71,0000.17
2022-04-23 17:11:00,,0812.1,5.02,0.00,22.9,22.0,00.0,32.0,24.7,10.2,0000.0,0005.75,0000.67,0000.18
2022-04-23 17:12:00,,0812.1,4.99,0.00,22.9,22.0,00.0,32.0,24.7,10.1,0000.0,0006.02,0000.68,0000.18
2022-04-23 17:13:00,,0812.0,4.99,0.00,22.9,22.0,00.0,32.0,24.7,09.7,0000.0,0005.15,0000.72,0000.19
2022-04-23 17:14:00,,0812.1,5.01,0.00,22.9,22.0,00.0,32.0,24.7,09.7,0000.0,0005.20,0000.75,0000.20
2022-04-23 17:15:00,,0812.1,5.01,0.00,22.9,22.0,00.0,32.0,24.7,10.0,0000.0,0004.25,0000.70,0000.20
2022-04-23 17:16:00,,0812.3,4.99,0.00,22.9,22.1,00.0,32.0,24.7,09.8,0000.0,0004.10,0000.69,0000.21
2022-04-23 17:17:00,,0812.5,4.99,0.00,22.9,22.1,00.0,32.0,24.7,09.8,0000.0,0004.15,0000.70,0000.21
2022-04-23 17:18:00,,0812.6,5.00,0.00,22.9,22.0,00.0,32.0,24.7,09.9,0000.0,0004.05,0000.67,0000.21
2022-04-23 17:19:00,,0812.4,5.01,0.00,22.9,22.0,00.0,32.0,24.7,10.0,0000.0,0004.03,0000.64,0000.22
2022-04-23 17:20:00,,0812.4,5.00,0.00,22.9,22.0,00.0,32.0,24.7,09.9,0000.0,0003.57,0000.65,0000.22
2022-04-23 17:21:00,,0812.6,5.00,0.00,22.9,22.0,00.0,32.0,24.7,09.8,0000.0,0003.49,0000.68,0000.22
2022-04-23 17:22:00,,0812.6,4.99,0.00,22.9,22.0,00.0,32.0,24.7,09.6,0000.0,0003.49,0000.69,0000.23
2022-04-23 17:23:00,,0812.5,5.01,0.00,22.9,22.0,00.0,32.0,24.7,09.7,0000.0,0004.00,0000.68,0000.23
2022-04-23 17:24:00,,0812.5,4.99,0.00,22.9,22.0,00.0,32.0,24.7,09.1,0000.0,0003.91,0000.66,0000.23
2022-04-23 17:25:00,,0812.7,5.00,0.00,22.9,22.0,00.0,32.0,24.7,09.0,0000.0,0003.75,0000.61,0000.23
2022-04-23 17:26:00,,0812.6,5.01,0.00,22.9,22.0,00.0,32.0,24.6,09.1,0000.0,0003.90,0000.63,0000.24
2022-04-23 17:27:00,,0812.8,5.00,0.00,22.9,22.0,00.0,32.0,24.6,09.1,0000.0,0003.25,0000.60,0000.24
2022-04-23 17:28:00,,0812.8,4.99,0.00,22.9,22.0,00.0,32.0,24.7,09.3,0000.0,0003.38,0000.62,0000.25
2022-04-23 17:29:00,,0812.8,4.99,0.00,22.9,21.9,00.0,31.9,24.7,09.4,0000.0,0003.96,0000.62,0000.24
2022-04-23 17:30:00,,0812.8,4.99,0.00,22.9,21.9,00.0,31.9,24.7,09.6,0000.0,0004.01,0000.63,0000.24
2022-04-23 17:31:00,,0812.6,5.01,0.00,22.9,21.9,00.0,31.9,24.7,09.6,0000.0,0004.11,0000.66,0000.25
2022-04-23 17:32:00,,0812.8,5.01,0.00,22.9,21.9,00.0,31.9,24.7,09.1,0000.0,0003.72,0000.62,0000.25
2022-04-23 17:33:00,,0812.8,4.98,0.00,22.9,21.9,00.0,31.9,24.7,09.0,0000.0,0004.06,0000.60,0000.25
2022-04-23 17:34:00,,0812.9,4.99,0.00,22.9,22.0,00.0,31.9,24.7,09.2,0000.0,0003.66,0000.58,0000.25
2022-04-23 17:35:00,,0813.1,5.00,0.00,22.9,22.0,00.0,31.9,24.8,09.3,0000.0,0003.50,0000.56,0000.24
2022-04-23 17:36:00,,0812.7,5.02,0.00,23.0,22.0,00.0,31.9,24.8,09.4,0000.0,0003.84,0000.57,0000.24
2022-04-23 17:37:00,,0812.7,4.99,0.00,23.0,22.0,00.0,31.9,24.8,09.4,0000.0,0003.55,0000.55,0000.23
2022-04-23 17:38:00,,0812.9,5.00,0.00,23.0,22.0,00.0,31.9,24.8,09.2,0000.0,0003.63,0000.55,0000.23
2022-04-23 17:39:00,,0812.9,4.99,0.00,22.9,22.0,00.0,31.9,24.7,09.2,0000.0,0003.59,0000.52,0000.23
2022-04-23 17:40:00,,0812.9,5.01,0.00,22.9,22.0,00.0,31.9,24.7,09.2,0000.0,0002.91,0000.50,0000.24
2022-04-23 17:41:00,,0813.1,4.99,0.00,22.9,22.1,00.0,31.9,24.7,09.3,0000.0,0002.91,0000.52,0000.24
2022-04-23 17:42:00,,0812.9,5.00,0.00,23.0,22.0,00.0,31.9,24.8,09.4,0000.0,0002.92,0000.53,0000.24
2022-04-23 17:43:00,,0813.0,4.99,0.00,23.0,22.0,00.0,31.9,24.7,09.4,0000.0,0003.01,0000.58,0000.24
2022-04-23 17:44:00,,0812.9,5.00,0.00,23.0,22.0,00.0,31.9,24.8,09.5,0000.0,0002.57,0000.59,0000.25
2022-04-23 17:45:00,,0812.9,5.00,0.00,23.0,22.0,00.0,31.9,24.8,09.3,0000.0,0002.22,0000.60,0000.25
2022-04-23 17:46:00,,0813.0,5.00,0.00,23.0,22.1,00.0,31.9,24.8,09.3,0000.0,0002.06,0000.59,0000.24
2022-04-23 17:47:00,,0813.1,4.99,0.00,23.0,22.1,00.0,31.9,24.8,09.3,0000.0,0001.75,0000.59,0000.25
2022-04-23 17:48:00,,0813.2,5.00,0.00,23.0,22.1,00.0,31.9,24.8,09.5,0000.0,0001.87,0000.65,0000.25
2022-04-23 17:49:00,,0813.0,5.02,0.00,23.0,22.1,00.0,31.9,24.8,09.4,0000.0,0001.89,0000.69,0000.26
2022-04-23 17:50:00,,0813.1,5.00,0.00,23.0,22.1,00.0,32.0,24.8,09.5,0000.0,0001.86,0000.69,0000.26
2022-04-23 17:51:00,,0813.0,4.99,0.00,23.0,22.1,00.0,32.0,24.8,09.5,0000.0,0001.90,0000.70,0000.25
2022-04-23 17:52:00,,0813.0,5.00,0.00,23.0,22.1,00.0,32.0,24.7,09.3,0000.0,0001.76,0000.69,0000.24
2022-04-23 17:53:00,,0812.9,5.01,0.00,23.0,22.1,00.0,32.0,24.8,09.2,0000.0,0002.12,0000.65,0000.24
2022-04-23 17:54:00,,0812.8,4.98,0.00,23.0,22.1,00.0,32.0,24.8,09.2,0000.0,0002.90,0000.65,0000.24
2022-04-23 17:55:00,,0812.7,5.01,0.00,23.0,22.1,00.0,32.0,24.8,09.2,0000.0,0002.86,0000.63,0000.23
2022-04-23 17:56:00,,0813.0,4.99,0.00,22.9,22.1,00.0,32.0,24.7,09.0,0000.0,0002.87,0000.61,0000.23
2022-04-23 17:57:00,,0813.0,5.00,0.00,22.9,22.1,00.0,32.0,24.7,09.4,0000.0,0002.71,0000.59,0000.23
2022-04-23 17:58:00,,0813.1,5.00,0.00,22.9,22.1,00.0,32.0,24.7,09.3,0000.0,0002.72,0000.58,0000.22
2022-04-23 17:59:00,,0813.1,5.00,0.00,22.9,22.1,00.0,32.0,24.7,09.3,0000.0,0002.60,0000.51,0000.22
